S51DM-13 Weather Reports


time (UTC)temp
C
wind
direction
speed
KPH
gust
KPH
rain 1hr
cm
rain 24hr
cm
rain mn
cm
humidity
%
barometer
mb
20260906110905 27 322 3.2 4.8 0.00 0.00 0.00 39 1023.8
20260906110218 28 343 1.6 6.4 0.00 0.00 0.00 38 1024.1
20260906105403 27 83 1.6 11.3 0.00 0.00 0.00 39 1024.0
20260906104503 27 113 1.6 6.4 0.00 0.00 0.00 38 1024.0
20260906103819 27 200 3.2 11.3 0.00 0.00 0.00 40 1024.3
20260906102703 26 25 1.6 6.4 0.00 0.00 0.00 42 1024.3
20260906101805 26 51 3.2 9.7 0.00 0.00 0.00 41 1024.3
20260906100905 27 109 3.2 9.7 0.00 0.00 0.00 40 1024.5
20260906100003 27 290 1.6 9.7 0.00 0.00 0.00 42 1024.4
20260906095404 26 350 1.6 9.7 0.00 0.00 0.00 42 1024.7
20260906094504 26 133 1.6 9.7 0.00 0.00 0.00 42 1024.9
20260906093603 25 99 3.2 16.1 0.00 0.00 0.00 43 1025.0
20260906092705 26 65 3.2 14.5 0.00 0.00 0.00 40 1025.0
20260906091805 26 51 1.6 4.8 0.00 0.00 0.00 39 1025.0
20260906090905 25 104 1.6 6.4 0.00 0.00 0.00 40 1025.3
20260906090005 25 249 1.6 9.7 0.00 0.00 0.00 42 1025.3
20260906085617 25 270 1.6 9.7 0.00 0.00 0.00 41 1025.1
20260906084503 25 87 3.2 9.7 0.00 0.00 0.00 41 1025.2
20260906083605 25 108 3.2 16.1 0.00 0.00 0.00 40 1025.5
20260906082705 24 67 3.2 16.1 0.00 0.00 0.00 43 1025.7
20260906081805 24 84 3.2 9.7 0.00 0.00 0.00 41 1025.5
20260906081118 24 97 3.2 9.7 0.00 0.00 0.00 40 1025.3
20260906080005 24 114 1.6 4.8 0.00 0.00 0.00 42 1025.3
20260906075405 23 98 1.6 4.8 0.00 0.00 0.00 43 1025.3
20260906074503 23 85 1.6 9.7 0.00 0.00 0.00 46 1025.4
20260906073605 22 21 1.6 9.7 0.00 0.00 0.00 48 1025.3
20260906072705 22 88 1.6 9.7 0.00 0.00 0.00 50 1025.4
20260906071805 22 105 1.6 4.8 0.00 0.00 0.00 55 1025.4
20260906070905 21 112 1.6 4.8 0.00 0.00 0.00 65 1025.5
20260906070005 20 85 0.0 3.2 0.00 0.00 0.00 76 1025.4
20260906065405 18 91 0.0 3.2 0.00 0.00 0.00 81 1025.3
20260906064504 17 99 0.0 1.6 0.00 0.00 0.00 88 1025.4
20260906063603 16 125 0.0 1.6 0.00 0.00 0.00 91 1025.4
20260906062705 16 124 0.0 1.6 0.00 0.00 0.00 93 1025.4
20260906061805 16 91 0.0 3.2 0.00 0.00 0.00 96 1025.3
20260906060905 15 70 0.0 1.6 0.00 0.00 0.00 97 1025.4
20260906060005 15 70 0.0 1.6 0.00 0.00 0.00 97 1024.7
20260906055618 15 70 0.0 1.6 0.00 0.00 0.00 97 1025.1
20260906054505 15 0 0.0 1.6 0.00 0.00 0.00 98 1024.9
20260906053603 15 27 0.0 1.6 0.00 0.00 0.00 97 1025.0
20260906052705 15 0 0.0 0.0 0.00 0.00 0.00 98 1024.9
20260906051803 14 58 0.0 1.6 0.00 0.00 0.00 98 1024.8
20260906050905 14 96 0.0 1.6 0.00 0.00 0.00 98 1024.5
20260906050005 13 97 0.0 1.6 0.00 0.00 0.00 97 1024.3
20260906045620 13 0 0.0 0.0 0.00 0.00 0.00 97 1024.4
20260906044504 13 25 0.0 3.2 0.00 0.00 0.00 97 1024.4
20260906043605 13 0 0.0 0.0 0.00 0.00 0.00 97 1024.2
20260906042705 13 0 0.0 0.0 0.00 0.00 0.00 97 1024.0
20260906041805 13 0 0.0 0.0 0.00 0.00 0.00 97 1023.8
20260906041118 13 0 0.0 0.0 0.00 0.00 0.00 97 1023.9
20260906040003 13 0 0.0 0.0 0.00 0.00 0.00 97 1023.5
20260906035403 13 359 0.0 1.6 0.00 0.00 0.00 97 1023.7
20260906034505 14 0 0.0 0.0 0.00 0.00 0.00 97 1023.5
20260906033603 14 0 0.0 0.0 0.00 0.00 0.00 97 1023.3
20260906032705 14 0 0.0 0.0 0.00 0.00 0.00 97 1023.2
20260906031805 14 0 0.0 0.0 0.00 0.00 0.00 97 1023.2
20260906030905 14 0 0.0 0.0 0.00 0.00 0.00 97 1023.0
20260906030217 14 0 0.0 0.0 0.00 0.00 0.00 97 1023.2
20260906025405 14 0 0.0 0.0 0.00 0.00 0.00 97 1023.2
20260906024503 14 0 0.0 0.0 0.00 0.00 0.00 97 1023.1
20260906023818 14 0 0.0 0.0 0.00 0.00 0.00 97 1022.9
20260906022705 14 0 0.0 0.0 0.00 0.00 0.00 96 1022.9
20260906021805 14 0 0.0 0.0 0.00 0.00 0.00 96 1022.7
20260906020905 15 0 0.0 0.0 0.00 0.00 0.00 96 1022.7
20260906020004 15 0 0.0 0.0 0.00 0.00 0.00 96 1022.8
20260906015403 15 0 0.0 0.0 0.00 0.00 0.00 96 1022.7
20260906014503 15 0 0.0 0.0 0.00 0.00 0.00 96 1022.7
20260906013603 15 0 0.0 0.0 0.00 0.00 0.00 96 1022.7
20260906012919 15 0 0.0 0.0 0.00 0.00 0.00 96 1022.7
20260906011803 15 0 0.0 0.0 0.00 0.00 0.00 96 1022.8
20260906011119 15 0 0.0 0.0 0.00 0.00 0.00 96 1022.8
20260906010216 15 0 0.0 0.0 0.00 0.00 0.00 96 1022.9
20260906005618 15 0 0.0 0.0 0.00 0.00 0.00 96 1022.7
20260906004503 15 0 0.0 0.0 0.00 0.00 0.00 96 1022.7
20260906003603 15 0 0.0 0.0 0.00 0.00 0.00 96 1022.6
20260906002705 16 0 0.0 0.0 0.00 0.00 0.00 95 1022.6
20260906001805 16 0 0.0 0.0 0.00 0.00 0.00 95 1022.7
20260906000903 16 0 0.0 0.0 0.00 0.00 0.00 95 1022.5
20260906000004 16 0 0.0 0.0 0.00 0.00 0.00 95 1022.4
20260905235618 16 0 0.0 0.0 0.00 0.00 0.00 95 1022.3
20260905234505 16 0 0.0 0.0 0.00 0.00 0.00 95 1022.5
20260905233818 16 0 0.0 0.0 0.00 0.00 0.00 95 1022.4
20260905232705 16 0 0.0 0.0 0.00 0.00 0.00 94 1022.3
20260905232019 16 0 0.0 0.0 0.00 0.00 0.00 94 1022.2
20260905230903 16 0 0.0 0.0 0.00 0.00 0.00 94 1022.3
20260905230005 16 0 0.0 0.0 0.00 0.00 0.00 94 1022.3
20260905225403 16 0 0.0 0.0 0.00 0.00 0.00 94 1022.3
20260905224503 17 0 0.0 0.0 0.00 0.00 0.00 93 1022.2
20260905223605 17 0 0.0 0.0 0.00 0.00 0.00 93 1022.1
20260905222703 17 0 0.0 0.0 0.00 0.00 0.00 93 1022.0
20260905221805 17 2 0.0 1.6 0.00 0.00 0.00 93 1022.3
20260905220903 17 0 0.0 0.0 0.00 0.00 0.00 92 1022.0
20260905220005 17 0 0.0 0.0 0.00 0.00 0.00 92 1022.3
20260905215405 17 0 0.0 0.0 0.00 0.00 0.00 92 1022.1
20260905214505 17 2 0.0 1.6 0.00 0.00 0.00 91 1022.0
20260905213603 18 20 0.0 1.6 0.00 0.00 0.00 90 1021.8
20260905212705 18 19 0.0 1.6 0.00 0.00 0.00 90 1021.8
20260905212018 18 19 0.0 1.6 0.00 0.00 0.00 90 1021.5
20260905210905 18 0 0.0 0.0 0.00 0.00 0.00 90 1021.5
20260905210005 18 0 0.0 0.0 0.00 0.00 0.00 90 1021.7
20260905205405 18 0 0.0 0.0 0.00 0.00 0.00 90 1021.4
20260905204505 18 34 0.0 1.6 0.00 0.00 0.00 89 1021.5
20260905203817 18 26 0.0 3.2 0.00 0.00 0.00 89 1021.4
20260905202705 18 19 0.0 1.6 0.00 0.00 0.00 88 1021.5
20260905202018 18 25 0.0 1.6 0.00 0.00 0.00 88 1021.3
20260905200905 18 32 0.0 1.6 0.00 0.00 0.00 87 1021.2
20260905200004 18 0 0.0 0.0 0.00 0.00 0.00 87 1021.4
20260905195403 18 0 0.0 0.0 0.00 0.00 0.00 86 1021.1
20260905194505 18 0 0.0 0.0 0.00 0.00 0.00 85 1020.9
20260905193605 19 0 0.0 0.0 0.00 0.00 0.00 84 1020.6
20260905192705 19 40 0.0 1.6 0.00 0.00 0.00 83 1020.7
20260905191805 19 49 0.0 1.6 0.00 0.00 0.00 83 1020.5
20260905190903 19 49 0.0 1.6 0.00 0.00 0.00 82 1020.4
20260905190003 19 0 0.0 0.0 0.00 0.00 0.00 82 1020.2
20260905185403 19 64 0.0 1.6 0.00 0.00 0.00 81 1020.5
20260905184505 19 88 0.0 1.6 0.00 0.00 0.00 80 1020.4
20260905183605 20 108 0.0 1.6 0.00 0.00 0.00 76 1020.4
20260905182705 20 0 0.0 0.0 0.00 0.00 0.00 73 1019.6
20260905182018 20 0 0.0 0.0 0.00 0.00 0.00 72 1019.7
20260905180903 20 113 0.0 1.6 0.00 0.00 0.00 71 1019.8
20260905180003 20 0 0.0 0.0 0.00 0.00 0.00 69 1019.6
20260905175404 20 0 0.0 0.0 0.00 0.00 0.00 68 1019.4
20260905174503 20 0 0.0 0.0 0.00 0.00 0.00 67 1019.5
20260905173605 21 0 0.0 0.0 0.00 0.00 0.00 66 1018.9
20260905172705 21 0 0.0 0.0 0.00 0.00 0.00 63 1019.0
20260905172019 21 114 0.0 1.6 0.00 0.00 0.00 64 1018.8
20260905170905 21 0 0.0 0.0 0.00 0.00 0.00 63 1018.7
20260905170220 22 0 0.0 0.0 0.00 0.00 0.00 61 1018.9
20260905165403 22 130 0.0 1.6 0.00 0.00 0.00 60 1018.6
20260905164505 22 34 0.0 1.6 0.00 0.00 0.00 58 1018.6
20260905163605 23 336 0.0 1.6 0.00 0.00 0.00 56 1018.6
20260905162703 23 137 0.0 3.2 0.00 0.00 0.00 55 1018.5
20260905161805 23 128 0.0 1.6 0.00 0.00 0.00 55 1018.4
20260905160905 23 110 1.6 4.8 0.00 0.00 0.00 55 1018.5
20260905160005 23 119 1.6 3.2 0.00 0.00 0.00 53 1018.4
20260905155403 23 111 1.6 3.2 0.00 0.00 0.00 53 1018.5
20260905154718 24 75 0.0 1.6 0.00 0.00 0.00 52 1018.7
20260905153603 24 77 0.0 3.2 0.00 0.00 0.00 52 1018.6
20260905152704 24 94 0.0 3.2 0.00 0.00 0.00 52 1018.7
20260905151804 25 118 0.0 3.2 0.00 0.00 0.00 50 1018.6
20260905150905 24 93 1.6 3.2 0.00 0.00 0.00 54 1018.4
20260905150004 25 140 1.6 3.2 0.00 0.00 0.00 50 1018.5
20260905145411 26 123 1.6 3.2 0.00 0.00 0.00 48 1018.6
20260905144505 26 88 0.0 4.8 0.00 0.00 0.00 47 1018.5
20260905143603 24 105 0.0 3.2 0.00 0.00 0.00 55 1018.5
20260905142919 22 306 0.0 3.2 0.00 0.00 0.00 61 1018.7
20260905141805 22 334 1.6 6.4 0.00 0.00 0.00 65 1019.1
20260905140909 21 315 0.0 1.6 0.00 0.00 0.00 64 1019.3
20260905140005 21 284 0.0 4.8 0.00 0.00 0.00 66 1019.0
20260905135405 21 273 1.6 4.8 0.00 0.00 0.00 66 1019.2
20260905134504 21 333 3.2 9.7 0.00 0.00 0.00 68 1019.0
20260905133605 21 312 3.2 9.7 0.00 0.00 0.00 65 1019.0
20260905132703 22 71 1.6 3.2 0.00 0.00 0.00 62 1018.8